Location: Feydey
(46.3431°N, 7.0106°E)
Time: 09:14:04
(UTC+00:00)

Cosmos 2034 Rocket - Pass Details

Date: 20 June 2021
Orbit: 957 x 1001 km, 82.9° (Epoch: 04 August)

Event Time Altitude Azimuth Distance (km) Brightness Sun altitude
Rises 22:58:40 0° 349° (N) 3,666 8.7 -19.8°
Reaches altitude 10° 23:01:11 10° 348° (NNW) 2,711 7.6 -19.8°
Maximum altitude 23:07:21 74° 265° (W) 1,001 4.0 -20.0°
Enters shadow 23:10:06 35° 188° (S) 1,505 4.5 -20.0°
